Overview Statistics Trail Chart Weather Telemetry Raw packets
 

This is the latest recevied weather packets stored in our database for station/object KI4NG. If no packets are shown the sender has not sent any weather packets the latest 10 day(s).

<< 59 60 61 62 63 64 65 >>
Time Temp. Humidity Pressure Rain* Wind** Luminosity Snow
1788217762 28.89° C 71% 1021.3 hPa 0 mm - 56 W/m² -
1788217457 29.44° C 70% 1021.3 hPa 0 mm - 57 W/m² -
1788217151 29.44° C 68% 1021.3 hPa 0 mm - 59 W/m² -
1788216847 29.44° C 69% 1021.3 hPa 0 mm - 64 W/m² -
1788216542 30° C 67% 1021.3 hPa 0 mm - 68 W/m² -
1788216242 30.56° C 66% 1021.4 hPa 0 mm - 74 W/m² -
1788215936 30.56° C 64% 1021.4 hPa 0 mm - 125 W/m² -
1788215632 31.11° C 63% 1021.3 hPa 0 mm - 183 W/m² -
1788215329 31.67° C 61% 1021.2 hPa 0 mm - 190 W/m² -
1788215024 31.67° C 60% 1021.4 hPa 0 mm - 232 W/m² -
1788214719 32.22° C 57% 1021.3 hPa 0 mm - 211 W/m² -
1788214415 32.78° C 56% 1021.5 hPa 0 mm - 258 W/m² -
1788214110 33.33° C 54% 1021.6 hPa 0 mm - 296 W/m² -
1788213805 32.78° C 55% 1021.5 hPa 0 mm - 285 W/m² -
1788213500 32.22° C 56% 1021.5 hPa 0 mm - 316 W/m² -
1788213196 32.22° C 57% 1021.8 hPa 0 mm - 327 W/m² -
1788212893 32.78° C 58% 1021.4 hPa 0 mm - 372 W/m² -
1788212590 32.22° C 56% 1021.6 hPa 0 mm - 370 W/m² -
1788212285 32.78° C 57% 1021.6 hPa 0 mm - 393 W/m² -
1788211981 32.78° C 56% 1021.7 hPa 0 mm - 400 W/m² -
1788211676 32.78° C 55% 1021.4 hPa 0 mm - 395 W/m² -
1788211373 32.22° C 56% 1021.7 hPa 0 mm - 384 W/m² -
1788211071 31.67° C 58% 1021.9 hPa 0 mm - 420 W/m² -
1788210766 31.67° C 57% 1021.7 hPa 0 mm - 368 W/m² -
1788210461 32.78° C 57% 1021.8 hPa 0 mm - 468 W/m² -

* Rain latest hour (hover to see other rain measurements)
** Current wind speed in m/s (hover to see current wind gust speed)